カタログに戻る

COSMOS 249 DEB

運用中LEO
NORAD 14410·DEBRIS·🇷🇺 Russia

打ち上げ Oct 20, 1968 から Baikonur Cosmodrome

Loading…

次のパス (今後24時間)

TLE

最新Source: Space-Track

元期: Sep 14, 2026, 04:42 UTC

1 14410U 68091CL  26257.19595799  .00003429  00000-0  11994-2 0  9994
2 14410  62.2015 324.9041 0301756 319.9416  68.6880 14.14274024116762

AllMySatでCOSMOS 249 DEBをリアルタイム追跡

Download on the App Store